This is the latest recevied weather packets stored in our database for station/object KI6PPU. If no packets are shown the sender has not sent any weather packets the latest 1 day(s).
| Time | Temp. | Humidity | Pressure | Rain* | Wind** | Luminosity | Snow |
|---|---|---|---|---|---|---|---|
| 1777997341 | 10.56° C | 98% | 1017.4 hPa | 0 mm | 0.89 m/s, 139° | 171 W/m² | - |
| 1777997039 | 10.56° C | 98% | 1017.5 hPa | 0 mm | 1.34 m/s, 90° | 144 W/m² | - |
| 1777996735 | 10.56° C | 98% | 1017.5 hPa | 0 mm | 0 m/s | 114 W/m² | - |
| 1777996431 | 10° C | 98% | 1017.6 hPa | 0 mm | 0 m/s | 111 W/m² | - |
| 1777996128 | 10.56° C | 99% | 1017.5 hPa | 0 mm | 0.45 m/s, 151° | 95 W/m² | - |
| 1777995824 | 10.56° C | 99% | 1017.4 hPa | 0 mm | 0.45 m/s, 185° | 83 W/m² | - |
| 1777995520 | 10.56° C | 99% | 1017.4 hPa | 0 mm | 0.89 m/s, 110° | 76 W/m² | - |
| 1777995218 | 10.56° C | 99% | 1017.4 hPa | 0 mm | 0.45 m/s, 54° | 76 W/m² | - |
| 1777994914 | 10.56° C | 99% | 1017.4 hPa | 0 mm | 0 m/s | 73 W/m² | - |
| 1777994611 | 10.56° C | 99% | 1017.3 hPa | 0 mm | 0.45 m/s, 154° | 82 W/m² | - |
| 1777994306 | 11.11° C | 99% | 1017.2 hPa | 0 mm | 0.89 m/s, 184° | 70 W/m² | - |
| 1777994003 | 10.56° C | 99% | 1017.3 hPa | 0 mm | 0 m/s | 50 W/m² | - |
| 1777993699 | 10.56° C | 99% | 1017.1 hPa | 0 mm | 0 m/s | 53 W/m² | - |
| 1777993397 | 10.56° C | 99% | 1017.2 hPa | 0 mm | 0 m/s | 59 W/m² | - |
| 1777993091 | 10.56° C | 99% | 1017.1 hPa | 0 mm | 0 m/s | 69 W/m² | - |
| 1777992790 | 10.56° C | 99% | 1017.1 hPa | 0 mm | 0 m/s | 73 W/m² | - |
| 1777992487 | 10.56° C | 99% | 1017 hPa | 0 mm | 0 m/s | 77 W/m² | - |
| 1777992186 | 10.56° C | 99% | 1017.1 hPa | 0 mm | 0 m/s | 71 W/m² | - |
| 1777991882 | 10.56° C | 99% | 1016.9 hPa | 0 mm | 0.45 m/s, 75° | 70 W/m² | - |
| 1777991580 | 10.56° C | 99% | 1016.9 hPa | 0 mm | 0.45 m/s, 270° | 51 W/m² | - |
| 1777991276 | 10.56° C | 99% | 1016.8 hPa | 0 mm | 0 m/s | 57 W/m² | - |
| 1777990973 | 10.56° C | 99% | 1016.8 hPa | 0 mm | 0 m/s | 39 W/m² | - |
| 1777990671 | 10.56° C | 99% | 1016.9 hPa | 0 mm | 0 m/s | 29 W/m² | - |
| 1777990369 | 10.56° C | 99% | 1016.7 hPa | 0 mm | 0 m/s | 32 W/m² | - |
| 1777990064 | 10.56° C | 99% | 1016.7 hPa | 0 mm | 0 m/s | 38 W/m² | - |
* Rain latest hour (hover to see other rain measurements)
** Current wind speed in m/s (hover to see current wind gust speed)